SHIYAN 4 (SY-4)

导读

SHIYAN 4(SY-4,实验四号)是中国于2011年11月20日08:00发射的科学试验卫星,承担航天技术验证与空间环境科学探测任务。作为中国早期试验类卫星,它依托成熟航天平台设计,面向新技术在轨验证需求,测试新型航天元器件、空间探测设备等关键技术,同时开展空间环境参数探测。该卫星的发射,进一步丰富了中国空间技术试验积累,为后续同类卫星研制和航天技术应用奠定基础,推动了中国航天领域技术迭代与发展。

基本信息
目录编号:
37931
目录名称:
SHIYAN 4 (SY-4)
国际标识:
2011-068B
轨道中心:
EARTH
卫星名称:
SHIYAN 4 (SY-4)
卫星全名:
--
卫星状态:
在轨 (已飞行5323 天)
发射日期:
2011-11-20 UTC
国别 :
中国 (CN)
星等 :
--
轨道信息
数据来源 国际轨道数据 AOE轨道数据
星历时间 2026-06-17T20:43:07+0800
5小时前
查看轨道信息
2026-06-12T23:00:00+0800
5天前
查看轨道信息
半长轴 7166.099km 7166.108km
偏心率 0.0023648 0.0023486
轨道倾角 98.695° 98.695°
近地点辐角 142.576° 156.868°
升交点赤经 187.551° 182.641°
平近点角 335.681° 265.228°
近地点 771.015km 771.14km
远地点 804.909km 804.802km
周期 100.620分钟 100.620分钟
每日圈数 14.311284 14.311257
详细信息
使用方式:
暂无
2D轨道图
3D轨道图
轨道高度分析图
轨道倾角分析图
轨道综合分析图
查看轨道综合分析图